Tracking 28790 objects as of 19-Apr-2024
HD Live streaming from Space Station
objects crossing your sky now

PSLV DEB

Track PSLV DEB now!
10-day predictions


NORAD ID: 27255
Int'l Code: 2001-049HB
Perigee: 527.6 km
Apogee: 569.8 km
Inclination: 97.9 °
Period: 95.5 minutes
Semi major axis: 6919 km
RCS: 0.0078 m2 (small)
Launch date: October 22, 2001
Source: India (IND)
Launch site: SRIHARIKOTA (SRI)

Note: This is SATELLITE DEBRIS
Your satellite tracking list
Your tracking list is empty




NASA's NSSDC Master Catalog

Two Line Element Set (TLE):
1 27255U 01049HB  24107.87003276  .00026154  00000-0  16703-2 0  9999
2 27255  97.9471 131.4029 0030525 172.2117 187.9590 15.08244677207266
Source of the keplerian elements: AFSPC